Sisimiut

KL  EN  DA
ASIAQ
Weather Now GREENLAND SURVEY
Updated [WGT/WGST] Temperature [°C] Wind [m/s] Air pressure [hPa] Relative humidity [%] Precipitation [mm]
Present Wind chill Speed Max
17.01 12:00-5,0-13,08,6 ⇑11,6100979n/a
17.01 11:00-4,6-12,68,6 ⇑10,9100781n/a
17.01 10:00-3,8-10,56,4 ⇑10,0100683n/a
17.01 09:00-4,7-7,41,7 ⇙5,4100593n/a
17.01 08:00-3,2-8,74,7 ⇐6,5100364n/a
17.01 07:00-3,3-10,06,7 ⇐8,8100359n/a
17.01 06:00-3,0-10,17,7 ⇐10,6100257n/a
17.01 05:00-3,2-10,98,8 ⇐11,6100251n/a
17.01 04:00-3,4-10,78,0 ⇐10,3100251n/a
17.01 03:00-2,9-9,87,5 ⇐11,4100151n/a
17.01 02:00-2,9-10,18,1 ⇐10,5100250n/a
17.01 01:00-3,1-11,210,0 ⇐12,6100252n/a
17.01 00:00-3,0-9,46,2 ⇐8,8100349n/a
16.01 23:00-3,8-9,64,9 ⇙7,3100448n/a
16.01 22:00-3,1-8,14,0 ⇐5,1100549n/a
16.01 21:00-6,50,00,0 ⇓0,0100650n/a
16.01 20:00-7,70,00,0 ⇓0,0100649n/a
16.01 19:00-8,00,00,0 ⇓0,0100757n/a
16.01 18:00-9,10,00,9 ⇐2,5100860n/a
16.01 17:00-8,70,00,8 ⇐1,4100855n/a
16.01 16:00-8,20,00,1 ⇓0,8100858n/a
16.01 15:00-8,1-10,81,4 ⇐1,7100859n/a
16.01 14:00-7,60,00,1 ⇙1,0100963n/a
16.01 13:00-7,0-9,71,5 ⇐2,6100957n/a
16.01 12:00-7,5-13,33,8 ⇖4,4100954n/a
Position: (66.95138888888,-53.729444444)

[Back]